Time,TemperatureF,DewpointF,PressureIn,WindDirection,WindDirectionDegrees,WindSpeedMPH,WindSpeedGustMPH,Humidity,HourlyPrecipIn,Conditions,Clouds,dailyrainin,SoftwareType,DateUTC
2013-08-23 00:00:00,82.7,72.3,29.95,ESE,107,0.0,0.0,71,0.00,,SKC,0.00,VWS V14.01,2013-08-23 05:00:00,
2013-08-23 00:01:00,82.5,72.2,29.94,ESE,107,0.0,0.0,71,0.00,,SKC,0.00,VWS V14.01,2013-08-23 05:01:00,
2013-08-23 00:06:00,82.3,72.4,29.94,ESE,107,0.0,0.0,72,0.00,,SKC,0.00,VWS V14.01,2013-08-23 05:06:00,
2013-08-23 00:10:00,82.3,72.4,29.94,ESE,107,0.0,0.0,72,0.00,,SKC,0.00,VWS V14.01,2013-08-23 05:10:00,
2013-08-23 00:11:00,82.2,72.3,29.95,ESE,107,0.0,0.0,72,0.00,,SKC,0.00,VWS V14.01,2013-08-23 05:11:00,
2013-08-23 00:16:00,82.0,72.1,29.95,ESE,107,0.0,0.0,72,0.00,,SKC,0.00,VWS V14.01,2013-08-23 05:16:00,
2013-08-23 00:20:00,82.0,72.1,29.95,ESE,107,0.0,0.0,72,0.00,,SKC,0.00,VWS V14.01,2013-08-23 05:20:00,
2013-08-23 00:21:00,81.8,72.3,29.95,ESE,107,0.0,0.0,73,0.00,,SKC,0.00,VWS V14.01,2013-08-23 05:21:00,
2013-08-23 00:26:00,81.7,72.2,29.95,ESE,107,0.0,0.0,73,0.00,,SKC,0.00,VWS V14.01,2013-08-23 05:26:00,
2013-08-23 00:30:00,81.7,72.2,29.95,ESE,107,0.0,4.0,73,0.00,,SKC,0.00,VWS V14.01,2013-08-23 05:30:00,
2013-08-23 00:31:00,81.6,72.1,29.95,ESE,107,0.0,4.0,73,0.00,,SKC,0.00,VWS V14.01,2013-08-23 05:31:00,
2013-08-23 00:36:00,81.4,71.9,29.94,ESE,107,0.0,0.0,73,0.00,,SKC,0.00,VWS V14.01,2013-08-23 05:36:00,
2013-08-23 00:40:00,81.5,72.0,29.95,ESE,107,0.0,4.0,73,0.00,,SKC,0.00,VWS V14.01,2013-08-23 05:40:00,
2013-08-23 00:41:00,81.3,71.8,29.95,ESE,107,0.0,0.0,73,0.00,,SKC,0.00,VWS V14.01,2013-08-23 05:41:00,
2013-08-23 00:46:00,81.2,71.7,29.95,ESE,107,0.0,0.0,73,0.00,,SKC,0.00,VWS V14.01,2013-08-23 05:46:00,
2013-08-23 00:50:00,81.2,71.7,29.95,ESE,107,0.0,2.0,73,0.00,,SKC,0.00,VWS V14.01,2013-08-23 05:50:00,
2013-08-23 00:51:00,81.1,72.0,29.95,ESE,107,0.0,0.0,74,0.00,,SKC,0.00,VWS V14.01,2013-08-23 05:51:00,
2013-08-23 00:56:00,80.9,71.8,29.95,ESE,107,0.0,0.0,74,0.00,,SKC,0.00,VWS V14.01,2013-08-23 05:56:00,
2013-08-23 01:00:00,80.9,71.8,29.95,ESE,107,0.0,0.0,74,0.00,,SKC,0.00,VWS V14.01,2013-08-23 06:00:00,
2013-08-23 01:01:00,80.8,71.7,29.96,ESE,107,0.0,0.0,74,0.00,,SKC,0.00,VWS V14.01,2013-08-23 06:01:00,
2013-08-23 01:06:00,80.7,72.0,29.95,ESE,107,0.0,0.0,75,0.00,,SKC,0.00,VWS V14.01,2013-08-23 06:06:00,
2013-08-23 01:10:00,80.7,72.0,29.96,ESE,107,0.0,0.0,75,0.00,,SKC,0.00,VWS V14.01,2013-08-23 06:10:00,
2013-08-23 01:11:00,80.6,71.9,29.95,ESE,107,0.0,1.0,75,0.00,,SKC,0.00,VWS V14.01,2013-08-23 06:11:00,
2013-08-23 01:15:00,80.4,71.8,29.95,ESE,107,0.0,0.0,75,0.00,,SKC,0.00,VWS V14.01,2013-08-23 06:15:00,
2013-08-23 01:20:00,80.3,72.1,29.95,ESE,107,0.0,0.0,76,0.00,,SKC,0.00,VWS V14.01,2013-08-23 06:20:00,
2013-08-23 01:25:00,80.2,71.9,29.94,ESE,107,0.0,0.0,76,0.00,,SKC,0.00,VWS V14.01,2013-08-23 06:25:00,
2013-08-23 01:30:00,80.0,71.8,29.94,ESE,107,0.0,0.0,76,0.00,,SKC,0.00,VWS V14.01,2013-08-23 06:30:00,
2013-08-23 01:35:00,79.9,72.1,29.94,ESE,107,0.0,0.0,77,0.00,,SKC,0.00,VWS V14.01,2013-08-23 06:35:00,
2013-08-23 01:40:00,79.7,71.9,29.94,ESE,107,0.0,0.0,77,0.00,,SKC,0.00,VWS V14.01,2013-08-23 06:40:00,
2013-08-23 01:45:00,79.6,71.8,29.94,ESE,107,0.0,0.0,77,0.00,,SKC,0.00,VWS V14.01,2013-08-23 06:45:00,
2013-08-23 01:50:00,79.4,71.9,29.94,ESE,107,0.0,0.0,78,0.00,,SKC,0.00,VWS V14.01,2013-08-23 06:50:00,
2013-08-23 01:55:00,79.3,71.8,29.94,ESE,107,0.0,0.0,78,0.00,,SKC,0.00,VWS V14.01,2013-08-23 06:55:00,
2013-08-23 02:00:00,79.1,71.7,29.94,ESE,107,0.0,0.0,78,0.00,,SKC,0.00,VWS V14.01,2013-08-23 07:00:00,
2013-08-23 02:05:00,79.0,71.9,29.94,ESE,107,0.0,0.0,79,0.00,,SKC,0.00,VWS V14.01,2013-08-23 07:05:00,
2013-08-23 02:10:00,78.8,71.7,29.94,ESE,107,0.0,0.0,79,0.00,,SKC,0.00,VWS V14.01,2013-08-23 07:10:00,
2013-08-23 02:15:00,78.7,71.6,29.94,ESE,107,0.0,0.0,79,0.00,,SKC,0.00,VWS V14.01,2013-08-23 07:15:00,
2013-08-23 02:20:00,78.5,71.8,29.94,ESE,107,0.0,0.0,80,0.00,,SKC,0.00,VWS V14.01,2013-08-23 07:20:00,
2013-08-23 02:25:00,78.4,71.7,29.94,ESE,107,0.0,0.0,80,0.00,,SKC,0.00,VWS V14.01,2013-08-23 07:25:00,
2013-08-23 02:30:00,78.3,72.0,29.94,ESE,107,0.0,0.0,81,0.00,,SKC,0.00,VWS V14.01,2013-08-23 07:30:00,
2013-08-23 02:35:00,78.2,71.9,29.94,ESE,107,0.0,0.0,81,0.00,,SKC,0.00,VWS V14.01,2013-08-23 07:35:00,
2013-08-23 02:40:00,78.0,71.7,29.94,ESE,107,0.0,0.0,81,0.00,,SKC,0.00,VWS V14.01,2013-08-23 07:40:00,
2013-08-23 02:45:00,77.9,71.6,29.94,ESE,107,0.0,0.0,81,0.00,,SKC,0.00,VWS V14.01,2013-08-23 07:45:00,
2013-08-23 02:50:00,77.8,71.9,29.94,ESE,107,0.0,0.0,82,0.00,,SKC,0.00,VWS V14.01,2013-08-23 07:50:00,
2013-08-23 02:55:00,77.6,71.7,29.94,ESE,107,0.0,0.0,82,0.00,,SKC,0.00,VWS V14.01,2013-08-23 07:55:00,
2013-08-23 03:00:00,77.5,71.6,29.94,ESE,107,0.0,0.0,82,0.00,,SKC,0.00,VWS V14.01,2013-08-23 08:00:00,
2013-08-23 03:05:00,77.3,71.7,29.93,ESE,107,0.0,0.0,83,0.00,,SKC,0.00,VWS V14.01,2013-08-23 08:05:00,
2013-08-23 03:10:00,77.2,71.6,29.93,ESE,107,0.0,0.0,83,0.00,,SKC,0.00,VWS V14.01,2013-08-23 08:10:00,
2013-08-23 03:15:00,77.1,71.5,29.93,ESE,107,0.0,0.0,83,0.00,,SKC,0.00,VWS V14.01,2013-08-23 08:15:00,
2013-08-23 03:20:00,77.0,71.4,29.94,ESE,107,0.0,0.0,83,0.00,,SKC,0.00,VWS V14.01,2013-08-23 08:20:00,
2013-08-23 03:25:00,76.9,71.7,29.93,ESE,107,0.0,0.0,84,0.00,,SKC,0.00,VWS V14.01,2013-08-23 08:25:00,
2013-08-23 03:30:00,76.8,71.6,29.94,ESE,107,0.0,0.0,84,0.00,,SKC,0.00,VWS V14.01,2013-08-23 08:30:00,
2013-08-23 03:35:00,76.7,71.5,29.94,ESE,107,0.0,0.0,84,0.00,,SKC,0.00,VWS V14.01,2013-08-23 08:35:00,
2013-08-23 03:40:00,76.6,71.8,29.93,ESE,107,0.0,0.0,85,0.00,,SKC,0.00,VWS V14.01,2013-08-23 08:40:00,
2013-08-23 03:45:00,76.6,71.8,29.93,ESE,107,0.0,0.0,85,0.00,,SKC,0.00,VWS V14.01,2013-08-23 08:45:00,
2013-08-23 03:50:00,76.4,71.6,29.93,ESE,107,0.0,0.0,85,0.00,,SKC,0.00,VWS V14.01,2013-08-23 08:50:00,
2013-08-23 03:55:00,76.3,71.5,29.93,ESE,107,0.0,0.0,85,0.00,,SKC,0.00,VWS V14.01,2013-08-23 08:55:00,
2013-08-23 04:00:00,76.2,71.4,29.93,ESE,107,0.0,0.0,85,0.00,,SKC,0.00,VWS V14.01,2013-08-23 09:00:00,
2013-08-23 04:05:00,76.1,71.6,29.93,ESE,107,0.0,0.0,86,0.00,,SKC,0.00,VWS V14.01,2013-08-23 09:05:00,
2013-08-23 04:10:00,76.0,71.5,29.93,ESE,107,0.0,0.0,86,0.00,,SKC,0.00,VWS V14.01,2013-08-23 09:10:00,
2013-08-23 04:15:00,75.8,71.3,29.93,ESE,107,0.0,0.0,86,0.00,,SKC,0.00,VWS V14.01,2013-08-23 09:15:00,
2013-08-23 04:20:00,75.7,71.6,29.93,ESE,107,0.0,0.0,87,0.00,,SKC,0.00,VWS V14.01,2013-08-23 09:20:00,
2013-08-23 04:25:00,75.7,71.6,29.93,ESE,107,0.0,0.0,87,0.00,,SKC,0.00,VWS V14.01,2013-08-23 09:25:00,
2013-08-23 04:30:00,75.6,71.8,29.93,ESE,107,0.0,0.0,88,0.00,,SKC,0.00,VWS V14.01,2013-08-23 09:30:00,
2013-08-23 04:35:00,75.5,71.7,29.93,ESE,107,0.0,0.0,88,0.00,,SKC,0.00,VWS V14.01,2013-08-23 09:35:00,
2013-08-23 04:40:00,75.4,71.3,29.93,ESE,107,0.0,0.0,87,0.00,,SKC,0.00,VWS V14.01,2013-08-23 09:40:00,
2013-08-23 04:45:00,75.2,71.1,29.93,ESE,107,0.0,0.0,87,0.00,,SKC,0.00,VWS V14.01,2013-08-23 09:45:00,
2013-08-23 04:50:00,75.1,71.0,29.93,ESE,107,0.0,0.0,87,0.00,,SKC,0.00,VWS V14.01,2013-08-23 09:50:00,
2013-08-23 04:55:00,75.0,71.2,29.93,ESE,107,0.0,0.0,88,0.00,,SKC,0.00,VWS V14.01,2013-08-23 09:55:00,
2013-08-23 05:00:00,74.9,71.1,29.93,ESE,107,0.0,0.0,88,0.00,,SKC,0.00,VWS V14.01,2013-08-23 10:00:00,
2013-08-23 05:05:00,74.7,70.9,29.94,ESE,107,0.0,0.0,88,0.00,,SKC,0.00,VWS V14.01,2013-08-23 10:05:00,
2013-08-23 05:10:00,74.6,70.8,29.93,ESE,107,0.0,0.0,88,0.00,,SKC,0.00,VWS V14.01,2013-08-23 10:10:00,
2013-08-23 05:15:00,74.5,70.7,29.93,ESE,107,0.0,0.0,88,0.00,,SKC,0.00,VWS V14.01,2013-08-23 10:15:00,
2013-08-23 05:20:00,74.4,70.9,29.93,ESE,107,0.0,0.0,89,0.00,,SKC,0.00,VWS V14.01,2013-08-23 10:20:00,
2013-08-23 05:25:00,74.4,70.9,29.94,ESE,107,0.0,0.0,89,0.00,,SKC,0.00,VWS V14.01,2013-08-23 10:25:00,
2013-08-23 05:30:00,74.4,71.3,29.94,ESE,107,0.0,0.0,90,0.00,,SKC,0.00,VWS V14.01,2013-08-23 10:30:00,
2013-08-23 05:35:00,74.4,71.3,29.93,ESE,107,0.0,0.0,90,0.00,,SKC,0.00,VWS V14.01,2013-08-23 10:35:00,
2013-08-23 05:40:00,74.4,71.6,29.93,ESE,107,0.0,0.0,91,0.00,,SKC,0.00,VWS V14.01,2013-08-23 10:40:00,
2013-08-23 05:45:00,74.5,71.7,29.93,ESE,107,0.0,0.0,91,0.00,,SKC,0.00,VWS V14.01,2013-08-23 10:45:00,
2013-08-23 05:50:00,74.5,71.7,29.93,ESE,107,0.0,0.0,91,0.00,,SKC,0.00,VWS V14.01,2013-08-23 10:50:00,
2013-08-23 05:55:00,74.5,71.7,29.94,ESE,107,0.0,0.0,91,0.00,,SKC,0.00,VWS V14.01,2013-08-23 10:55:00,
2013-08-23 06:00:00,74.4,71.6,29.93,ESE,107,0.0,0.0,91,0.00,,SKC,0.00,VWS V14.01,2013-08-23 11:00:00,
2013-08-23 06:05:00,74.3,71.5,29.93,ESE,107,0.0,0.0,91,0.00,,SKC,0.00,VWS V14.01,2013-08-23 11:05:00,
2013-08-23 06:10:00,74.3,71.5,29.93,ESE,107,0.0,0.0,91,0.00,,SKC,0.00,VWS V14.01,2013-08-23 11:10:00,
2013-08-23 06:15:00,74.2,71.4,29.94,ESE,107,0.0,0.0,91,0.00,,SKC,0.00,VWS V14.01,2013-08-23 11:15:00,
2013-08-23 06:20:00,74.1,71.3,29.94,ESE,107,0.0,0.0,91,0.00,,SKC,0.00,VWS V14.01,2013-08-23 11:20:00,
2013-08-23 06:25:00,74.0,71.2,29.94,ESE,107,0.0,0.0,91,0.00,,SKC,0.00,VWS V14.01,2013-08-23 11:25:00,
2013-08-23 06:30:00,74.0,71.2,29.94,ESE,107,0.0,0.0,91,0.00,,SKC,0.00,VWS V14.01,2013-08-23 11:30:00,
2013-08-23 06:35:00,73.9,71.1,29.94,ESE,107,0.0,0.0,91,0.00,,SKC,0.00,VWS V14.01,2013-08-23 11:35:00,
2013-08-23 06:40:00,73.9,71.1,29.94,ESE,107,0.0,0.0,91,0.00,,SKC,0.00,VWS V14.01,2013-08-23 11:40:00,
2013-08-23 06:45:00,73.9,71.4,29.94,ESE,107,0.0,0.0,92,0.00,,SKC,0.00,VWS V14.01,2013-08-23 11:45:00,
2013-08-23 06:50:00,73.8,71.3,29.95,ESE,107,0.0,0.0,92,0.00,,SKC,0.00,VWS V14.01,2013-08-23 11:50:00,
2013-08-23 06:55:00,73.8,71.0,29.95,ESE,107,0.0,0.0,91,0.00,,SKC,0.00,VWS V14.01,2013-08-23 11:55:00,
2013-08-23 07:00:00,73.8,71.3,29.95,ESE,107,0.0,0.0,92,0.00,,SKC,0.00,VWS V14.01,2013-08-23 12:00:00,
2013-08-23 07:05:00,73.7,71.2,29.95,ESE,107,0.0,0.0,92,0.00,,SKC,0.00,VWS V14.01,2013-08-23 12:05:00,
2013-08-23 07:10:00,73.7,71.2,29.95,ESE,107,0.0,0.0,92,0.00,,SKC,0.00,VWS V14.01,2013-08-23 12:10:00,
2013-08-23 07:15:00,73.7,71.2,29.95,ESE,107,0.0,0.0,92,0.00,,SKC,0.00,VWS V14.01,2013-08-23 12:15:00,
2013-08-23 07:20:00,73.7,71.6,29.95,ESE,107,0.0,0.0,93,0.00,,SKC,0.00,VWS V14.01,2013-08-23 12:20:00,
2013-08-23 07:25:00,73.7,71.6,29.95,ESE,107,0.0,0.0,93,0.00,,SKC,0.00,VWS V14.01,2013-08-23 12:25:00,
2013-08-23 07:30:00,73.8,71.7,29.96,ESE,107,0.0,0.0,93,0.00,,SKC,0.00,VWS V14.01,2013-08-23 12:30:00,
2013-08-23 07:35:00,73.8,71.7,29.96,ESE,107,0.0,0.0,93,0.00,,SKC,0.00,VWS V14.01,2013-08-23 12:35:00,
2013-08-23 07:40:00,73.9,71.8,29.96,ESE,107,0.0,0.0,93,0.00,,SKC,0.00,VWS V14.01,2013-08-23 12:40:00,
2013-08-23 07:45:00,74.0,71.8,29.96,ESE,107,0.0,0.0,93,0.00,,SKC,0.00,VWS V14.01,2013-08-23 12:45:00,
2013-08-23 07:50:00,74.2,72.4,29.96,ESE,107,0.0,0.0,94,0.00,,SKC,0.00,VWS V14.01,2013-08-23 12:50:00,
2013-08-23 07:55:00,74.5,72.7,29.96,ESE,107,0.0,0.0,94,0.00,,SKC,0.00,VWS V14.01,2013-08-23 12:55:00,
2013-08-23 08:00:00,74.9,73.1,29.96,ESE,107,0.0,0.0,94,0.00,,SKC,0.00,VWS V14.01,2013-08-23 13:00:00,
2013-08-23 08:05:00,75.3,73.5,29.97,ESE,107,0.0,0.0,94,0.00,,SKC,0.00,VWS V14.01,2013-08-23 13:05:00,
2013-08-23 08:10:00,75.6,73.8,29.97,ESE,107,0.0,3.0,94,0.00,,SKC,0.00,VWS V14.01,2013-08-23 13:10:00,
2013-08-23 08:15:00,75.8,73.9,29.97,ESE,107,0.0,3.0,94,0.00,,SKC,0.00,VWS V14.01,2013-08-23 13:15:00,
2013-08-23 08:20:00,76.1,74.2,29.97,ESE,107,0.0,0.0,94,0.00,,SKC,0.00,VWS V14.01,2013-08-23 13:20:00,
2013-08-23 08:25:00,76.4,74.6,29.97,ESE,107,0.0,0.0,94,0.00,,SKC,0.00,VWS V14.01,2013-08-23 13:25:00,
2013-08-23 08:30:00,76.8,74.9,29.97,ESE,107,0.0,0.0,94,0.00,,SKC,0.00,VWS V14.01,2013-08-23 13:30:00,
2013-08-23 08:35:00,77.1,74.9,29.97,ESE,107,0.0,0.0,93,0.00,,SKC,0.00,VWS V14.01,2013-08-23 13:35:00,
2013-08-23 08:40:00,77.5,75.3,29.97,ESE,107,0.0,0.0,93,0.00,,SKC,0.00,VWS V14.01,2013-08-23 13:40:00,
2013-08-23 08:45:00,78.0,75.5,29.97,ESE,107,0.0,0.0,92,0.00,,SKC,0.00,VWS V14.01,2013-08-23 13:45:00,
2013-08-23 08:50:00,78.3,75.5,29.98,ESE,107,0.0,0.0,91,0.00,,SKC,0.00,VWS V14.01,2013-08-23 13:50:00,
2013-08-23 08:55:00,78.8,75.6,29.98,East,101,0.0,0.0,90,0.00,,SKC,0.00,VWS V14.01,2013-08-23 13:55:00,
2013-08-23 09:00:00,79.2,75.7,29.98,East,101,0.0,0.0,89,0.00,,SKC,0.00,VWS V14.01,2013-08-23 14:00:00,
2013-08-23 09:05:00,79.5,75.3,29.98,East,101,0.0,0.0,87,0.00,,SKC,0.00,VWS V14.01,2013-08-23 14:05:00,
2013-08-23 09:10:00,80.0,75.8,29.98,East,101,0.0,0.0,87,0.00,,SKC,0.00,VWS V14.01,2013-08-23 14:10:00,
2013-08-23 09:15:00,80.3,75.4,29.98,East,101,0.0,0.0,85,0.00,,SKC,0.00,VWS V14.01,2013-08-23 14:15:00,
2013-08-23 09:20:00,80.4,74.8,29.98,East,101,0.0,0.0,83,0.00,,SKC,0.00,VWS V14.01,2013-08-23 14:20:00,
2013-08-23 09:25:00,80.7,75.1,29.98,East,101,0.0,0.0,83,0.00,,SKC,0.00,VWS V14.01,2013-08-23 14:25:00,
2013-08-23 09:30:00,81.1,75.4,29.98,East,101,0.0,0.0,83,0.00,,SKC,0.00,VWS V14.01,2013-08-23 14:30:00,
2013-08-23 09:35:00,81.8,75.8,29.98,East,101,0.0,0.0,82,0.00,,SKC,0.00,VWS V14.01,2013-08-23 14:35:00,
2013-08-23 09:40:00,82.3,75.1,29.98,East,101,0.0,0.0,79,0.00,,SKC,0.00,VWS V14.01,2013-08-23 14:40:00,
2013-08-23 09:45:00,82.6,75.1,29.98,East,101,0.0,0.0,78,0.00,,SKC,0.00,VWS V14.01,2013-08-23 14:45:00,
2013-08-23 09:50:00,82.8,74.9,29.97,East,101,0.0,0.0,77,0.00,,SKC,0.00,VWS V14.01,2013-08-23 14:50:00,
2013-08-23 09:55:00,82.9,74.2,29.97,East,101,0.0,0.0,75,0.00,,SKC,0.00,VWS V14.01,2013-08-23 14:55:00,
2013-08-23 10:00:00,83.0,73.9,29.97,East,101,0.0,0.0,74,0.00,,SKC,0.00,VWS V14.01,2013-08-23 15:00:00,
2013-08-23 10:05:00,83.5,74.3,29.97,East,101,0.0,0.0,74,0.00,,SKC,0.00,VWS V14.01,2013-08-23 15:05:00,
2013-08-23 10:10:00,84.4,74.8,29.97,East,101,0.0,0.0,73,0.00,,SKC,0.00,VWS V14.01,2013-08-23 15:10:00,
2013-08-23 10:15:00,85.4,74.9,29.98,East,101,0.0,0.0,71,0.00,,SKC,0.00,VWS V14.01,2013-08-23 15:15:00,
2013-08-23 10:20:00,86.1,75.2,29.98,East,101,0.0,0.0,70,0.00,,SKC,0.00,VWS V14.01,2013-08-23 15:20:00,
2013-08-23 10:25:00,86.9,74.2,29.98,East,101,0.0,0.0,66,0.00,,SKC,0.00,VWS V14.01,2013-08-23 15:25:00,
2013-08-23 10:30:00,87.5,73.8,29.98,East,101,0.0,0.0,64,0.00,,SKC,0.00,VWS V14.01,2013-08-23 15:30:00,
2013-08-23 10:35:00,88.2,73.6,29.98,East,101,0.0,1.0,62,0.00,,SKC,0.00,VWS V14.01,2013-08-23 15:35:00,
2013-08-23 10:40:00,88.7,73.0,29.98,East,101,0.0,2.0,60,0.00,,SKC,0.00,VWS V14.01,2013-08-23 15:40:00,
2013-08-23 10:45:00,89.1,73.9,29.98,East,101,0.0,2.0,61,0.00,,SKC,0.00,VWS V14.01,2013-08-23 15:45:00,
2013-08-23 10:50:00,89.1,73.9,29.97,East,101,0.0,0.0,61,0.00,,SKC,0.00,VWS V14.01,2013-08-23 15:50:00,
2013-08-23 10:55:00,89.5,73.3,29.98,East,101,0.0,1.0,59,0.00,,SKC,0.00,VWS V14.01,2013-08-23 15:55:00,
2013-08-23 11:00:00,89.9,73.7,29.98,East,101,0.0,0.0,59,0.00,,SKC,0.00,VWS V14.01,2013-08-23 16:00:00,
2013-08-23 11:05:00,90.3,73.0,29.98,East,101,0.0,0.0,57,0.00,,SKC,0.00,VWS V14.01,2013-08-23 16:05:00,
2013-08-23 11:10:00,90.2,71.9,29.98,East,101,0.0,1.0,55,0.00,,SKC,0.00,VWS V14.01,2013-08-23 16:10:00,
2013-08-23 11:15:00,89.9,72.1,29.98,East,101,0.0,1.0,56,0.00,,SKC,0.00,VWS V14.01,2013-08-23 16:15:00,
2013-08-23 11:20:00,89.8,73.1,29.98,East,101,0.0,1.0,58,0.00,,SKC,0.00,VWS V14.01,2013-08-23 16:20:00,
2013-08-23 11:25:00,90.1,72.3,29.97,East,101,0.0,3.0,56,0.00,,SKC,0.00,VWS V14.01,2013-08-23 16:25:00,
2013-08-23 11:30:00,90.4,73.1,29.98,East,101,0.0,1.0,57,0.00,,SKC,0.00,VWS V14.01,2013-08-23 16:30:00,
2013-08-23 11:35:00,90.9,73.0,29.97,East,101,0.0,5.0,56,0.00,,SKC,0.00,VWS V14.01,2013-08-23 16:35:00,
2013-08-23 11:40:00,91.2,73.3,29.97,East,101,0.0,0.0,56,0.00,,SKC,0.00,VWS V14.01,2013-08-23 16:40:00,
2013-08-23 11:45:00,91.5,72.0,29.97,East,101,0.0,2.0,53,0.00,,SKC,0.00,VWS V14.01,2013-08-23 16:45:00,
2013-08-23 11:50:00,91.7,72.2,29.97,East,101,0.0,1.0,53,0.00,,SKC,0.00,VWS V14.01,2013-08-23 16:50:00,
2013-08-23 11:55:00,91.8,72.2,29.97,East,101,0.0,3.0,53,0.00,,SKC,0.00,VWS V14.01,2013-08-23 16:55:00,
2013-08-23 12:00:00,91.6,72.1,29.97,East,101,0.0,5.0,53,0.00,,SKC,0.00,VWS V14.01,2013-08-23 17:00:00,
2013-08-23 12:05:00,91.7,72.2,29.97,East,101,0.0,6.0,53,0.00,,SKC,0.00,VWS V14.01,2013-08-23 17:05:00,
2013-08-23 12:10:00,92.2,71.5,29.97,East,101,0.0,1.0,51,0.00,,SKC,0.00,VWS V14.01,2013-08-23 17:10:00,
2013-08-23 12:15:00,92.7,71.9,29.97,East,101,0.0,3.0,51,0.00,,SKC,0.00,VWS V14.01,2013-08-23 17:15:00,
2013-08-23 12:20:00,93.3,71.3,29.97,East,101,1.0,7.0,49,0.00,,SKC,0.00,VWS V14.01,2013-08-23 17:20:00,
2013-08-23 12:25:00,93.5,71.5,29.96,ESE,103,0.0,11.0,49,0.00,,SKC,0.00,VWS V14.01,2013-08-23 17:25:00,
2013-08-23 12:30:00,93.8,71.8,29.96,ESE,103,0.0,2.0,49,0.00,,SKC,0.00,VWS V14.01,2013-08-23 17:30:00,
2013-08-23 12:35:00,94.2,70.9,29.96,ESE,103,0.0,3.0,47,0.00,,SKC,0.00,VWS V14.01,2013-08-23 17:35:00,
2013-08-23 12:40:00,94.4,71.1,29.96,ESE,103,1.0,7.0,47,0.00,,SKC,0.00,VWS V14.01,2013-08-23 17:40:00,
2013-08-23 12:44:00,94.6,71.3,29.96,ESE,103,2.0,7.0,47,0.00,,SKC,0.00,VWS V14.01,2013-08-23 17:44:00,
2013-08-23 12:49:00,94.7,70.7,29.96,ESE,103,0.0,1.0,46,0.00,,SKC,0.00,VWS V14.01,2013-08-23 17:49:00,
2013-08-23 12:50:00,94.6,71.3,29.96,ESE,103,0.0,7.0,47,0.00,,SKC,0.00,VWS V14.01,2013-08-23 17:50:00,
2013-08-23 12:54:00,94.5,71.2,29.95,ESE,103,0.0,2.0,47,0.00,,SKC,0.00,VWS V14.01,2013-08-23 17:54:00,
2013-08-23 12:59:00,94.7,71.3,29.95,ESE,103,0.0,1.0,47,0.00,,SKC,0.00,VWS V14.01,2013-08-23 17:59:00,
2013-08-23 13:00:00,94.5,71.8,29.95,ESE,103,0.0,2.0,48,0.00,,SKC,0.00,VWS V14.01,2013-08-23 18:00:00,
2013-08-23 13:04:00,94.8,70.2,29.95,ESE,105,0.0,7.0,45,0.00,,SKC,0.00,VWS V14.01,2013-08-23 18:04:00,
2013-08-23 13:09:00,94.6,70.6,29.95,ESE,105,0.0,3.0,46,0.00,,SKC,0.00,VWS V14.01,2013-08-23 18:09:00,
2013-08-23 13:10:00,94.7,70.1,29.94,ESE,105,2.0,7.0,45,0.00,,SKC,0.00,VWS V14.01,2013-08-23 18:10:00,
2013-08-23 13:14:00,94.8,70.8,29.94,ESE,105,0.0,3.0,46,0.00,,SKC,0.00,VWS V14.01,2013-08-23 18:14:00,
2013-08-23 13:19:00,95.0,71.0,29.94,ESE,105,0.0,0.0,46,0.00,,SKC,0.00,VWS V14.01,2013-08-23 18:19:00,
2013-08-23 13:20:00,94.9,70.2,29.94,ESE,105,0.0,3.0,45,0.00,,SKC,0.00,VWS V14.01,2013-08-23 18:20:00,
2013-08-23 13:24:00,95.0,70.3,29.94,ESE,105,0.0,0.0,45,0.00,,SKC,0.00,VWS V14.01,2013-08-23 18:24:00,
2013-08-23 13:29:00,95.1,71.7,29.94,ESE,105,0.0,2.0,47,0.00,,SKC,0.00,VWS V14.01,2013-08-23 18:29:00,
2013-08-23 13:30:00,95.0,70.3,29.94,ESE,105,0.0,7.0,45,0.00,,SKC,0.00,VWS V14.01,2013-08-23 18:30:00,
2013-08-23 13:34:00,95.5,70.8,29.94,ESE,105,0.0,4.0,45,0.00,,SKC,0.00,VWS V14.01,2013-08-23 18:34:00,
2013-08-23 13:39:00,95.5,70.8,29.93,ESE,105,3.0,5.0,45,0.00,,SKC,0.00,VWS V14.01,2013-08-23 18:39:00,
2013-08-23 13:40:00,95.6,70.9,29.94,ESE,105,2.0,7.0,45,0.00,,SKC,0.00,VWS V14.01,2013-08-23 18:40:00,
2013-08-23 13:44:00,95.4,70.7,29.93,ESE,105,0.0,5.0,45,0.00,,SKC,0.00,VWS V14.01,2013-08-23 18:44:00,
2013-08-23 13:49:00,95.4,72.0,29.93,ESE,105,0.0,1.0,47,0.00,,SKC,0.00,VWS V14.01,2013-08-23 18:49:00,
2013-08-23 13:50:00,95.3,70.0,29.93,ESE,105,0.0,5.0,44,0.00,,SKC,0.00,VWS V14.01,2013-08-23 18:50:00,
2013-08-23 13:54:00,95.9,71.8,29.93,ESE,103,3.0,8.0,46,0.00,,SKC,0.00,VWS V14.01,2013-08-23 18:54:00,
2013-08-23 13:59:00,96.2,70.8,29.93,ESE,103,0.0,3.0,44,0.00,,SKC,0.00,VWS V14.01,2013-08-23 18:59:00,
2013-08-23 14:00:00,96.0,71.2,29.93,ESE,103,0.0,8.0,45,0.00,,SKC,0.00,VWS V14.01,2013-08-23 19:00:00,
2013-08-23 14:04:00,96.3,70.9,29.93,ESE,103,4.0,5.0,44,0.00,,SKC,0.00,VWS V14.01,2013-08-23 19:04:00,
2013-08-23 14:09:00,96.3,70.9,29.93,ESE,103,0.0,4.0,44,0.00,,SKC,0.00,VWS V14.01,2013-08-23 19:09:00,
2013-08-23 14:10:00,96.3,70.9,29.93,ESE,103,2.0,7.0,44,0.00,,SKC,0.00,VWS V14.01,2013-08-23 19:10:00,
2013-08-23 14:14:00,96.2,70.8,29.92,East,101,0.0,7.0,44,0.00,,SKC,0.00,VWS V14.01,2013-08-23 19:14:00,
2013-08-23 14:19:00,96.1,71.3,29.92,ESE,103,0.0,3.0,45,0.00,,SKC,0.00,VWS V14.01,2013-08-23 19:19:00,
2013-08-23 14:20:00,96.1,70.7,29.92,East,101,0.0,7.0,44,0.00,,SKC,0.00,VWS V14.01,2013-08-23 19:20:00,
2013-08-23 14:24:00,96.0,70.6,29.92,ESE,103,0.0,5.0,44,0.00,,SKC,0.00,VWS V14.01,2013-08-23 19:24:00,
2013-08-23 14:29:00,95.7,70.3,29.92,ESE,103,0.0,5.0,44,0.00,,SKC,0.00,VWS V14.01,2013-08-23 19:29:00,
2013-08-23 14:30:00,95.9,70.5,29.92,ESE,103,0.0,5.0,44,0.00,,SKC,0.00,VWS V14.01,2013-08-23 19:30:00,
2013-08-23 14:34:00,95.3,70.0,29.92,ESE,103,0.0,5.0,44,0.00,,SKC,0.00,VWS V14.01,2013-08-23 19:34:00,
2013-08-23 14:39:00,95.2,71.2,29.92,ESE,103,0.0,1.0,46,0.00,,SKC,0.00,VWS V14.01,2013-08-23 19:39:00,
2013-08-23 14:40:00,95.3,70.6,29.92,ESE,103,0.0,5.0,45,0.00,,SKC,0.00,VWS V14.01,2013-08-23 19:40:00,
2013-08-23 14:44:00,95.4,70.7,29.91,ESE,103,0.0,4.0,45,0.00,,SKC,0.00,VWS V14.01,2013-08-23 19:44:00,
2013-08-23 14:49:00,95.7,70.3,29.91,ESE,103,0.0,2.0,44,0.00,,SKC,0.00,VWS V14.01,2013-08-23 19:49:00,
2013-08-23 14:50:00,95.4,70.7,29.91,ESE,103,0.0,4.0,45,0.00,,SKC,0.00,VWS V14.01,2013-08-23 19:50:00,
2013-08-23 14:54:00,96.2,70.1,29.91,ESE,102,0.0,5.0,43,0.00,,SKC,0.00,VWS V14.01,2013-08-23 19:54:00,
2013-08-23 14:59:00,96.5,70.4,29.90,ESE,102,0.0,2.0,43,0.00,,SKC,0.00,VWS V14.01,2013-08-23 19:59:00,
2013-08-23 15:00:00,96.3,70.9,29.91,ESE,102,0.0,5.0,44,0.00,,SKC,0.00,VWS V14.01,2013-08-23 20:00:00,
2013-08-23 15:04:00,96.5,70.4,29.90,ESE,102,0.0,3.0,43,0.00,,SKC,0.00,VWS V14.01,2013-08-23 20:04:00,
2013-08-23 15:09:00,96.6,71.1,29.90,ESE,102,0.0,2.0,44,0.00,,SKC,0.00,VWS V14.01,2013-08-23 20:09:00,
2013-08-23 15:10:00,96.4,70.9,29.90,ESE,102,0.0,3.0,44,0.00,,SKC,0.00,VWS V14.01,2013-08-23 20:10:00,
2013-08-23 15:14:00,97.0,70.8,29.90,ESE,102,0.0,2.0,43,0.00,,SKC,0.00,VWS V14.01,2013-08-23 20:14:00,
2013-08-23 15:19:00,97.5,69.1,29.89,ESE,102,0.0,5.0,40,0.00,,SKC,0.00,VWS V14.01,2013-08-23 20:19:00,
2013-08-23 15:20:00,97.2,70.3,29.89,ESE,102,0.0,2.0,42,0.00,,SKC,0.00,VWS V14.01,2013-08-23 20:20:00,
2013-08-23 15:24:00,97.8,70.8,29.89,East,96,1.0,9.0,42,0.00,,SKC,0.00,VWS V14.01,2013-08-23 20:24:00,
2013-08-23 15:29:00,97.8,69.4,29.89,East,96,0.0,5.0,40,0.00,,SKC,0.00,VWS V14.01,2013-08-23 20:29:00,
2013-08-23 15:30:00,97.9,69.5,29.89,East,96,2.0,9.0,40,0.00,,SKC,0.00,VWS V14.01,2013-08-23 20:30:00,
2013-08-23 15:34:00,97.4,69.1,29.89,East,96,0.0,5.0,40,0.00,,SKC,0.00,VWS V14.01,2013-08-23 20:34:00,
2013-08-23 15:39:00,97.0,69.4,29.89,East,96,1.0,6.0,41,0.00,,SKC,0.00,VWS V14.01,2013-08-23 20:39:00,
2013-08-23 15:40:00,97.3,69.7,29.89,East,96,0.0,5.0,41,0.00,,SKC,0.00,VWS V14.01,2013-08-23 20:40:00,
2013-08-23 15:44:00,97.2,69.6,29.88,East,96,0.0,6.0,41,0.00,,SKC,0.00,VWS V14.01,2013-08-23 20:44:00,
2013-08-23 15:49:00,97.7,68.6,29.88,East,96,1.0,7.0,39,0.00,,SKC,0.00,VWS V14.01,2013-08-23 20:49:00,
2013-08-23 15:50:00,97.3,69.0,29.88,East,96,1.0,6.0,40,0.00,,SKC,0.00,VWS V14.01,2013-08-23 20:50:00,
2013-08-23 15:54:00,98.2,69.8,29.88,East,96,0.0,7.0,40,0.00,,SKC,0.00,VWS V14.01,2013-08-23 20:54:00,
2013-08-23 15:59:00,98.8,70.3,29.87,East,96,6.0,6.0,40,0.00,,SKC,0.00,VWS V14.01,2013-08-23 20:59:00,
2013-08-23 16:00:00,98.4,69.9,29.87,East,96,1.0,7.0,40,0.00,,SKC,0.00,VWS V14.01,2013-08-23 21:00:00,
2013-08-23 16:04:00,98.5,68.5,29.87,East,96,0.0,9.0,38,0.00,,SKC,0.00,VWS V14.01,2013-08-23 21:04:00,
2013-08-23 16:09:00,98.1,69.7,29.87,East,96,0.0,3.0,40,0.00,,SKC,0.00,VWS V14.01,2013-08-23 21:09:00,
2013-08-23 16:10:00,98.4,68.4,29.87,East,96,0.0,9.0,38,0.00,,SKC,0.00,VWS V14.01,2013-08-23 21:10:00,
2013-08-23 16:14:00,98.3,68.3,29.86,East,96,0.0,3.0,38,0.00,,SKC,0.00,VWS V14.01,2013-08-23 21:14:00,
2013-08-23 16:19:00,98.8,69.6,29.86,East,96,0.0,3.0,39,0.00,,SKC,0.00,VWS V14.01,2013-08-23 21:19:00,
2013-08-23 16:20:00,98.4,68.4,29.86,East,96,0.0,3.0,38,0.00,,SKC,0.00,VWS V14.01,2013-08-23 21:20:00,
2013-08-23 16:24:00,98.5,68.5,29.86,ESE,103,1.0,11.0,38,0.00,,SKC,0.00,VWS V14.01,2013-08-23 21:24:00,
2013-08-23 16:29:00,97.9,68.8,29.86,ESE,103,0.0,4.0,39,0.00,,SKC,0.00,VWS V14.01,2013-08-23 21:29:00,
2013-08-23 16:30:00,98.3,68.3,29.86,ESE,103,3.0,11.0,38,0.00,,SKC,0.00,VWS V14.01,2013-08-23 21:30:00,
2013-08-23 16:34:00,97.8,68.7,29.86,ESE,103,0.0,7.0,39,0.00,,SKC,0.00,VWS V14.01,2013-08-23 21:34:00,
2013-08-23 16:39:00,98.0,68.8,29.85,ESE,103,0.0,2.0,39,0.00,,SKC,0.00,VWS V14.01,2013-08-23 21:39:00,
2013-08-23 16:40:00,97.8,67.9,29.86,ESE,104,0.0,7.0,38,0.00,,SKC,0.00,VWS V14.01,2013-08-23 21:40:00,
2013-08-23 16:44:00,98.4,68.4,29.85,ESE,111,0.0,9.0,38,0.00,,SKC,0.00,VWS V14.01,2013-08-23 21:44:00,
2013-08-23 16:49:00,98.6,68.6,29.85,ESE,111,0.0,7.0,38,0.00,,SKC,0.00,VWS V14.01,2013-08-23 21:49:00,
2013-08-23 16:50:00,98.4,67.7,29.85,ESE,111,0.0,9.0,37,0.00,,SKC,0.00,VWS V14.01,2013-08-23 21:50:00,
2013-08-23 16:54:00,98.6,68.6,29.85,ESE,115,0.0,9.0,38,0.00,,SKC,0.00,VWS V14.01,2013-08-23 21:54:00,
2013-08-23 16:59:00,98.4,69.2,29.85,ESE,115,1.0,4.0,39,0.00,,SKC,0.00,VWS V14.01,2013-08-23 21:59:00,
2013-08-23 17:00:00,98.5,67.8,29.85,ESE,115,0.0,9.0,37,0.00,,SKC,0.00,VWS V14.01,2013-08-23 22:00:00,
2013-08-23 17:04:00,98.6,68.6,29.85,ESE,115,1.0,5.0,38,0.00,,SKC,0.00,VWS V14.01,2013-08-23 22:04:00,
2013-08-23 17:09:00,98.9,67.3,29.84,ESE,114,1.0,7.0,36,0.00,,SKC,0.00,VWS V14.01,2013-08-23 22:09:00,
2013-08-23 17:10:00,98.7,68.7,29.85,ESE,115,0.0,5.0,38,0.00,,SKC,0.00,VWS V14.01,2013-08-23 22:10:00,
2013-08-23 17:14:00,98.8,67.2,29.85,ESE,114,2.0,8.0,36,0.00,,SKC,0.00,VWS V14.01,2013-08-23 22:14:00,
2013-08-23 17:19:00,98.6,67.8,29.84,ESE,114,3.0,8.0,37,0.00,,SKC,0.00,VWS V14.01,2013-08-23 22:19:00,
2013-08-23 17:20:00,98.7,67.1,29.84,ESE,114,8.0,8.0,36,0.00,,SKC,0.00,VWS V14.01,2013-08-23 22:20:00,
2013-08-23 17:24:00,98.5,67.8,29.84,ESE,114,0.0,8.0,37,0.00,,SKC,0.00,VWS V14.01,2013-08-23 22:24:00,
2013-08-23 17:29:00,98.4,67.7,29.84,ESE,114,1.0,4.0,37,0.00,,SKC,0.00,VWS V14.01,2013-08-23 22:29:00,
2013-08-23 17:30:00,98.5,67.8,29.84,ESE,114,3.0,8.0,37,0.00,,SKC,0.00,VWS V14.01,2013-08-23 22:30:00,
2013-08-23 17:34:00,98.2,67.5,29.84,ESE,114,4.0,5.0,37,0.00,,SKC,0.00,VWS V14.01,2013-08-23 22:34:00,
2013-08-23 17:39:00,98.2,67.5,29.84,ESE,114,1.0,5.0,37,0.00,,SKC,0.00,VWS V14.01,2013-08-23 22:39:00,
2013-08-23 17:40:00,98.2,66.7,29.84,ESE,114,0.0,8.0,36,0.00,,SKC,0.00,VWS V14.01,2013-08-23 22:40:00,
2013-08-23 17:44:00,98.3,66.0,29.84,ESE,113,2.0,9.0,35,0.00,,SKC,0.00,VWS V14.01,2013-08-23 22:44:00,
2013-08-23 17:49:00,98.0,66.5,29.84,ESE,113,0.0,8.0,36,0.00,,SKC,0.00,VWS V14.01,2013-08-23 22:49:00,
2013-08-23 17:50:00,98.2,66.7,29.84,ESE,113,0.0,10.0,36,0.00,,SKC,0.00,VWS V14.01,2013-08-23 22:50:00,
2013-08-23 17:54:00,97.7,67.1,29.84,ESE,112,3.0,8.0,37,0.00,,SKC,0.00,VWS V14.01,2013-08-23 22:54:00,
2013-08-23 17:59:00,97.4,66.8,29.84,ESE,113,1.0,4.0,37,0.00,,SKC,0.00,VWS V14.01,2013-08-23 22:59:00,
2013-08-23 18:00:00,97.6,67.0,29.85,ESE,113,3.0,8.0,37,0.00,,SKC,0.00,VWS V14.01,2013-08-23 23:00:00,
2013-08-23 18:04:00,97.3,67.5,29.84,ESE,113,0.0,4.0,38,0.00,,SKC,0.00,VWS V14.01,2013-08-23 23:04:00,
2013-08-23 18:09:00,97.2,66.6,29.84,ESE,113,0.0,7.0,37,0.00,,SKC,0.00,VWS V14.01,2013-08-23 23:09:00,
2013-08-23 18:10:00,97.3,67.5,29.84,ESE,113,2.0,4.0,38,0.00,,SKC,0.00,VWS V14.01,2013-08-23 23:10:00,
2013-08-23 18:14:00,97.0,65.6,29.84,ESE,112,2.0,7.0,36,0.00,,SKC,0.00,VWS V14.01,2013-08-23 23:14:00,
2013-08-23 18:19:00,96.8,64.7,29.84,ESE,111,1.0,9.0,35,0.00,,SKC,0.00,VWS V14.01,2013-08-23 23:19:00,
2013-08-23 18:20:00,97.0,65.6,29.84,ESE,112,2.0,7.0,36,0.00,,SKC,0.00,VWS V14.01,2013-08-23 23:20:00,
2013-08-23 18:24:00,96.6,65.3,29.84,ESE,111,1.0,9.0,36,0.00,,SKC,0.00,VWS V14.01,2013-08-23 23:24:00,
2013-08-23 18:29:00,96.4,65.9,29.84,ESE,110,1.0,5.0,37,0.00,,SKC,0.00,VWS V14.01,2013-08-23 23:29:00,
2013-08-23 18:30:00,96.5,66.0,29.84,ESE,111,0.0,9.0,37,0.00,,SKC,0.00,VWS V14.01,2013-08-23 23:30:00,
2013-08-23 18:34:00,96.2,66.5,29.84,ESE,111,0.0,5.0,38,0.00,,SKC,0.00,VWS V14.01,2013-08-23 23:34:00,
2013-08-23 18:39:00,96.1,66.4,29.83,ESE,111,0.0,1.0,38,0.00,,SKC,0.00,VWS V14.01,2013-08-23 23:39:00,
2013-08-23 18:40:00,96.2,66.5,29.84,ESE,110,0.0,5.0,38,0.00,,SKC,0.00,VWS V14.01,2013-08-23 23:40:00,
2013-08-23 18:44:00,96.0,67.1,29.84,ESE,111,1.0,4.0,39,0.00,,SKC,0.00,VWS V14.01,2013-08-23 23:44:00,
2013-08-23 18:49:00,95.8,66.9,29.84,ESE,111,0.0,4.0,39,0.00,,SKC,0.00,VWS V14.01,2013-08-23 23:49:00,
2013-08-23 18:50:00,95.9,66.2,29.84,ESE,110,1.0,4.0,38,0.00,,SKC,0.00,VWS V14.01,2013-08-23 23:50:00,
2013-08-23 18:54:00,95.7,66.8,29.83,ESE,110,2.0,4.0,39,0.00,,SKC,0.00,VWS V14.01,2013-08-23 23:54:00,
2013-08-23 18:59:00,95.5,66.6,29.83,ESE,111,0.0,3.0,39,0.00,,SKC,0.00,VWS V14.01,2013-08-23 23:59:00,
2013-08-23 19:00:00,95.6,66.7,29.83,ESE,111,1.0,4.0,39,0.00,,SKC,0.00,VWS V14.01,2013-08-24 00:00:00,
2013-08-23 19:04:00,95.3,67.2,29.83,ESE,111,0.0,5.0,40,0.00,,SKC,0.00,VWS V14.01,2013-08-24 00:04:00,
2013-08-23 19:09:00,95.1,67.0,29.84,ESE,110,0.0,0.0,40,0.00,,SKC,0.00,VWS V14.01,2013-08-24 00:09:00,
2013-08-23 19:10:00,95.2,67.1,29.84,ESE,111,0.0,5.0,40,0.00,,SKC,0.00,VWS V14.01,2013-08-24 00:10:00,
2013-08-23 19:14:00,95.0,67.6,29.84,ESE,111,4.0,5.0,41,0.00,,SKC,0.00,VWS V14.01,2013-08-24 00:14:00,
2013-08-23 19:19:00,94.8,67.4,29.84,ESE,110,1.0,4.0,41,0.00,,SKC,0.00,VWS V14.01,2013-08-24 00:19:00,
2013-08-23 19:20:00,94.9,66.8,29.84,ESE,110,1.0,5.0,40,0.00,,SKC,0.00,VWS V14.01,2013-08-24 00:20:00,
2013-08-23 19:24:00,94.5,67.2,29.85,ESE,111,0.0,4.0,41,0.00,,SKC,0.00,VWS V14.01,2013-08-24 00:24:00,
2013-08-23 19:29:00,94.2,66.9,29.85,ESE,111,0.0,7.0,41,0.00,,SKC,0.00,VWS V14.01,2013-08-24 00:29:00,
2013-08-23 19:30:00,94.5,67.2,29.85,ESE,111,2.0,4.0,41,0.00,,SKC,0.00,VWS V14.01,2013-08-24 00:30:00,
2013-08-23 19:34:00,93.9,67.3,29.85,ESE,111,0.0,7.0,42,0.00,,SKC,0.00,VWS V14.01,2013-08-24 00:34:00,
2013-08-23 19:39:00,93.6,67.1,29.85,ESE,111,0.0,0.0,42,0.00,,SKC,0.00,VWS V14.01,2013-08-24 00:39:00,
2013-08-23 19:40:00,93.8,67.2,29.85,ESE,111,0.0,7.0,42,0.00,,SKC,0.00,VWS V14.01,2013-08-24 00:40:00,
2013-08-23 19:44:00,93.3,66.8,29.85,ESE,111,0.0,0.0,42,0.00,,SKC,0.00,VWS V14.01,2013-08-24 00:44:00,
2013-08-23 19:49:00,92.9,67.1,29.86,ESE,110,0.0,0.0,43,0.00,,SKC,0.00,VWS V14.01,2013-08-24 00:49:00,
2013-08-23 19:50:00,93.2,67.4,29.85,ESE,111,0.0,0.0,43,0.00,,SKC,0.00,VWS V14.01,2013-08-24 00:50:00,
2013-08-23 19:54:00,92.7,66.9,29.85,ESE,111,0.0,0.0,43,0.00,,SKC,0.00,VWS V14.01,2013-08-24 00:54:00,
2013-08-23 19:59:00,92.4,66.7,29.86,ESE,111,0.0,0.0,43,0.00,,SKC,0.00,VWS V14.01,2013-08-24 00:59:00,
2013-08-23 20:00:00,92.6,66.9,29.86,ESE,110,0.0,0.0,43,0.00,,SKC,0.00,VWS V14.01,2013-08-24 01:00:00,
2013-08-23 20:04:00,92.1,67.1,29.86,ESE,111,0.0,0.0,44,0.00,,SKC,0.00,VWS V14.01,2013-08-24 01:04:00,
2013-08-23 20:09:00,91.8,66.8,29.86,ESE,111,0.0,0.0,44,0.00,,SKC,0.00,VWS V14.01,2013-08-24 01:09:00,
2013-08-23 20:10:00,92.0,67.0,29.87,ESE,111,0.0,0.0,44,0.00,,SKC,0.00,VWS V14.01,2013-08-24 01:10:00,
2013-08-23 20:14:00,91.4,66.4,29.87,ESE,111,0.0,0.0,44,0.00,,SKC,0.00,VWS V14.01,2013-08-24 01:14:00,
2013-08-23 20:19:00,91.1,66.8,29.87,ESE,111,0.0,0.0,45,0.00,,SKC,0.00,VWS V14.01,2013-08-24 01:19:00,
2013-08-23 20:20:00,91.3,67.0,29.87,ESE,111,0.0,0.0,45,0.00,,SKC,0.00,VWS V14.01,2013-08-24 01:20:00,
2013-08-23 20:24:00,90.8,66.6,29.87,ESE,111,0.0,0.0,45,0.00,,SKC,0.00,VWS V14.01,2013-08-24 01:24:00,
2013-08-23 20:29:00,90.5,66.3,29.87,ESE,111,0.0,0.0,45,0.00,,SKC,0.00,VWS V14.01,2013-08-24 01:29:00,
2013-08-23 20:30:00,90.7,66.5,29.86,ESE,111,0.0,0.0,45,0.00,,SKC,0.00,VWS V14.01,2013-08-24 01:30:00,
2013-08-23 20:34:00,90.3,66.1,29.87,ESE,111,0.0,0.0,45,0.00,,SKC,0.00,VWS V14.01,2013-08-24 01:34:00,
2013-08-23 20:39:00,90.0,66.5,29.87,ESE,111,0.0,0.0,46,0.00,,SKC,0.00,VWS V14.01,2013-08-24 01:39:00,
2013-08-23 20:40:00,90.2,66.6,29.87,ESE,111,0.0,0.0,46,0.00,,SKC,0.00,VWS V14.01,2013-08-24 01:40:00,
2013-08-23 20:44:00,89.8,66.3,29.87,ESE,111,0.0,0.0,46,0.00,,SKC,0.00,VWS V14.01,2013-08-24 01:44:00,
2013-08-23 20:49:00,89.5,66.6,29.87,ESE,110,0.0,0.0,47,0.00,,SKC,0.00,VWS V14.01,2013-08-24 01:49:00,
2013-08-23 20:50:00,89.7,66.8,29.87,ESE,111,0.0,0.0,47,0.00,,SKC,0.00,VWS V14.01,2013-08-24 01:50:00,
2013-08-23 20:54:00,89.2,66.3,29.88,ESE,110,0.0,0.0,47,0.00,,SKC,0.00,VWS V14.01,2013-08-24 01:54:00,
2013-08-23 20:59:00,88.8,66.6,29.88,ESE,111,0.0,0.0,48,0.00,,SKC,0.00,VWS V14.01,2013-08-24 01:59:00,
2013-08-23 21:00:00,89.0,66.8,29.88,ESE,111,0.0,0.0,48,0.00,,SKC,0.00,VWS V14.01,2013-08-24 02:00:00,
2013-08-23 21:04:00,88.4,67.4,29.88,ESE,111,0.0,5.0,50,0.00,,SKC,0.00,VWS V14.01,2013-08-24 02:04:00,
2013-08-23 21:09:00,88.3,67.9,29.88,ESE,110,0.0,1.0,51,0.00,,SKC,0.00,VWS V14.01,2013-08-24 02:09:00,
2013-08-23 21:10:00,88.4,67.4,29.88,ESE,111,0.0,5.0,50,0.00,,SKC,0.00,VWS V14.01,2013-08-24 02:10:00,
2013-08-23 21:14:00,88.1,68.3,29.88,ESE,111,0.0,3.0,52,0.00,,SKC,0.00,VWS V14.01,2013-08-24 02:14:00,
2013-08-23 21:19:00,88.0,68.7,29.88,ESE,111,0.0,1.0,53,0.00,,SKC,0.00,VWS V14.01,2013-08-24 02:19:00,
2013-08-23 21:20:00,88.1,68.3,29.88,ESE,111,0.0,3.0,52,0.00,,SKC,0.00,VWS V14.01,2013-08-24 02:20:00,
2013-08-23 21:24:00,87.9,68.7,29.88,ESE,111,0.0,1.0,53,0.00,,SKC,0.00,VWS V14.01,2013-08-24 02:24:00,
2013-08-23 21:29:00,87.8,69.1,29.89,ESE,111,0.0,0.0,54,0.00,,SKC,0.00,VWS V14.01,2013-08-24 02:29:00,
2013-08-23 21:30:00,87.8,68.6,29.89,ESE,110,0.0,3.0,53,0.00,,SKC,0.00,VWS V14.01,2013-08-24 02:30:00,
2013-08-23 21:34:00,87.6,68.9,29.89,ESE,111,0.0,1.0,54,0.00,,SKC,0.00,VWS V14.01,2013-08-24 02:34:00,
2013-08-23 21:39:00,87.4,68.7,29.89,ESE,111,0.0,0.0,54,0.00,,SKC,0.00,VWS V14.01,2013-08-24 02:39:00,
2013-08-23 21:40:00,87.5,68.8,29.89,ESE,110,0.0,1.0,54,0.00,,SKC,0.00,VWS V14.01,2013-08-24 02:40:00,
2013-08-23 21:44:00,87.2,69.1,29.89,ESE,110,0.0,0.0,55,0.00,,SKC,0.00,VWS V14.01,2013-08-24 02:44:00,
2013-08-23 21:49:00,87.1,69.0,29.90,ESE,110,0.0,0.0,55,0.00,,SKC,0.00,VWS V14.01,2013-08-24 02:49:00,
2013-08-23 21:50:00,87.2,69.1,29.89,ESE,111,0.0,0.0,55,0.00,,SKC,0.00,VWS V14.01,2013-08-24 02:50:00,
2013-08-23 21:53:00,86.9,69.3,29.90,ESE,111,0.0,0.0,56,0.00,,SKC,0.00,VWS V14.01,2013-08-24 02:53:00,
2013-08-23 21:58:00,86.7,69.1,29.90,ESE,110,0.0,0.0,56,0.00,,SKC,0.00,VWS V14.01,2013-08-24 02:58:00,
2013-08-23 22:00:00,86.8,69.2,29.90,ESE,111,0.0,0.0,56,0.00,,SKC,0.00,VWS V14.01,2013-08-24 03:00:00,
2013-08-23 22:03:00,86.5,69.5,29.90,ESE,111,0.0,0.0,57,0.00,,SKC,0.00,VWS V14.01,2013-08-24 03:03:00,
2013-08-23 22:08:00,86.3,69.3,29.90,ESE,111,0.0,0.0,57,0.00,,SKC,0.00,VWS V14.01,2013-08-24 03:08:00,
2013-08-23 22:10:00,86.4,69.4,29.90,ESE,111,0.0,0.0,57,0.00,,SKC,0.00,VWS V14.01,2013-08-24 03:10:00,
2013-08-23 22:13:00,86.1,69.6,29.91,ESE,111,0.0,0.0,58,0.00,,SKC,0.00,VWS V14.01,2013-08-24 03:13:00,
2013-08-23 22:18:00,85.9,69.4,29.91,ESE,111,0.0,0.0,58,0.00,,SKC,0.00,VWS V14.01,2013-08-24 03:18:00,
2013-08-23 22:20:00,86.0,69.5,29.91,ESE,111,0.0,0.0,58,0.00,,SKC,0.00,VWS V14.01,2013-08-24 03:20:00,
2013-08-23 22:23:00,85.7,69.2,29.91,ESE,110,0.0,0.0,58,0.00,,SKC,0.00,VWS V14.01,2013-08-24 03:23:00,
2013-08-23 22:28:00,85.5,69.6,29.91,ESE,110,0.0,0.0,59,0.00,,SKC,0.00,VWS V14.01,2013-08-24 03:28:00,
2013-08-23 22:30:00,85.6,69.6,29.91,ESE,111,0.0,0.0,59,0.00,,SKC,0.00,VWS V14.01,2013-08-24 03:30:00,
2013-08-23 22:33:00,85.3,69.4,29.91,ESE,110,0.0,0.0,59,0.00,,SKC,0.00,VWS V14.01,2013-08-24 03:33:00,
2013-08-23 22:38:00,85.1,69.7,29.91,ESE,111,0.0,0.0,60,0.00,,SKC,0.00,VWS V14.01,2013-08-24 03:38:00,
2013-08-23 22:40:00,85.2,69.8,29.91,ESE,111,0.0,0.0,60,0.00,,SKC,0.00,VWS V14.01,2013-08-24 03:40:00,
2013-08-23 22:43:00,84.8,69.9,29.91,ESE,110,0.0,0.0,61,0.00,,SKC,0.00,VWS V14.01,2013-08-24 03:43:00,
2013-08-23 22:48:00,84.6,69.7,29.91,ESE,111,0.0,1.0,61,0.00,,SKC,0.00,VWS V14.01,2013-08-24 03:48:00,
2013-08-23 22:50:00,84.7,69.8,29.91,ESE,111,0.0,0.0,61,0.00,,SKC,0.00,VWS V14.01,2013-08-24 03:50:00,
2013-08-23 22:53:00,84.5,69.6,29.91,ESE,111,0.0,1.0,61,0.00,,SKC,0.00,VWS V14.01,2013-08-24 03:53:00,
2013-08-23 22:58:00,84.3,69.9,29.91,ESE,111,0.0,1.0,62,0.00,,SKC,0.00,VWS V14.01,2013-08-24 03:58:00,
2013-08-23 23:00:00,84.4,70.0,29.91,ESE,111,0.0,1.0,62,0.00,,SKC,0.00,VWS V14.01,2013-08-24 04:00:00,
2013-08-23 23:01:00,84.3,69.9,29.91,ESE,111,0.0,1.0,62,0.00,,SKC,0.00,VWS V14.01,2013-08-24 04:01:00,
2013-08-23 23:06:00,84.1,70.2,29.91,ESE,111,2.0,2.0,63,0.00,,SKC,0.00,VWS V14.01,2013-08-24 04:06:00,
2013-08-23 23:10:00,84.1,70.2,29.91,ESE,110,0.0,7.0,63,0.00,,SKC,0.00,VWS V14.01,2013-08-24 04:10:00,
2013-08-23 23:11:00,84.0,70.1,29.91,ESE,111,0.0,3.0,63,0.00,,SKC,0.00,VWS V14.01,2013-08-24 04:11:00,
2013-08-23 23:16:00,83.9,70.4,29.91,ESE,111,0.0,0.0,64,0.00,,SKC,0.00,VWS V14.01,2013-08-24 04:16:00,
2013-08-23 23:20:00,83.9,70.4,29.91,ESE,111,0.0,3.0,64,0.00,,SKC,0.00,VWS V14.01,2013-08-24 04:20:00,
2013-08-23 23:21:00,83.7,70.2,29.91,ESE,111,0.0,1.0,64,0.00,,SKC,0.00,VWS V14.01,2013-08-24 04:21:00,
2013-08-23 23:26:00,83.6,70.6,29.91,ESE,111,0.0,0.0,65,0.00,,SKC,0.00,VWS V14.01,2013-08-24 04:26:00,
2013-08-23 23:30:00,83.6,70.6,29.91,ESE,111,0.0,3.0,65,0.00,,SKC,0.00,VWS V14.01,2013-08-24 04:30:00,
2013-08-23 23:31:00,83.4,70.4,29.92,ESE,111,0.0,1.0,65,0.00,,SKC,0.00,VWS V14.01,2013-08-24 04:31:00,
2013-08-23 23:36:00,83.3,70.8,29.92,ESE,110,0.0,0.0,66,0.00,,SKC,0.00,VWS V14.01,2013-08-24 04:36:00,
2013-08-23 23:40:00,83.3,70.8,29.92,ESE,111,0.0,1.0,66,0.00,,SKC,0.00,VWS V14.01,2013-08-24 04:40:00,
2013-08-23 23:41:00,83.1,71.0,29.92,ESE,111,0.0,4.0,67,0.00,,SKC,0.00,VWS V14.01,2013-08-24 04:41:00,
2013-08-23 23:46:00,83.0,70.9,29.92,ESE,111,0.0,0.0,67,0.00,,SKC,0.00,VWS V14.01,2013-08-24 04:46:00,
2013-08-23 23:50:00,83.0,70.9,29.92,ESE,111,0.0,4.0,67,0.00,,SKC,0.00,VWS V14.01,2013-08-24 04:50:00,
2013-08-23 23:51:00,82.8,71.2,29.92,ESE,111,0.0,0.0,68,0.00,,SKC,0.00,VWS V14.01,2013-08-24 04:51:00,
2013-08-23 23:56:00,82.7,71.1,29.91,ESE,110,0.0,0.0,68,0.00,,SKC,0.00,VWS V14.01,2013-08-24 04:56:00,